Location: Northern Prairie Star Party
(53.2167°N, 112.5333°W)
Time: 13:54:10
(UTC-06:00)

Amateur Radio Satellites - All Passes

Search period start: 30 September 2014 13:24
Search period end: 01 October 2014 13:24
Location: Northern Prairie Star Party, 53.2167°N, 112.5333°W

Satellite Date Start Highest point End Downlink Frequencies (MHz)
Time Altitude Azimuth
Oscar 11 30 Sep 13:24:04 13:26:12 14° 307° (NW) 13:28:19 145.825 FM, Beacon 2401.500 USB
FUNcube-1 30 Sep 13:45:39 13:48:45 18° 304° (NW) 13:51:49 145.950 - 145.970 MHz USB
Oscar 19 30 Sep 13:50:23 13:55:35 78° 72° (ENE) 14:00:48 437.125 CW, 437.150 USB
TMSAT-1 30 Sep 13:51:03 13:54:53 21° 53° (NE) 13:58:43 436.925 FM
MaSat-1 30 Sep 13:51:27 13:54:13 18° 32° (NNE) 13:56:43 437.345 MHz
JAS-1B 30 Sep 13:51:56 13:59:01 61° 67° (ENE) 14:05:04 435.800 - 435.900 CW/SSB
ITAMSAT 1 30 Sep 14:00:49 14:05:47 49° 65° (ENE) 14:10:47 435.822 SSB
Uribyol 2 30 Sep 14:01:48 14:06:50 52° 66° (ENE) 14:11:54 436.500 FM
Sapphire 30 Sep 14:25:55 14:29:57 21° 348° (NNW) 14:34:00 437.095 MHz 1200 baud AX-25 AFSK
Oscar 16 30 Sep 14:31:37 14:36:41 51° 260° (W) 14:41:47 437.025 USB, Beacon 2401.1428
HO-68 30 Sep 14:32:03 14:34:34 12° 333° (NNW) 14:37:05 435.675 MHz FM
Uosat F 30 Sep 14:33:21 14:34:30 11° 44° (NE) 14:35:39 435.120 FM
AO-27 30 Sep 14:38:50 14:44:02 89° 253° (WSW) 14:49:17 436.795 MHz FM
AO-Echo 30 Sep 14:46:44 14:51:24 69° 257° (WSW) 14:56:10 ?
PCSat 30 Sep 14:52:22 14:56:14 19° 355° (N) 15:00:06 145.825 MHz
AO-7 30 Sep 14:54:46 15:02:05 37° 48° (NE) 15:09:24 29.400 - 29.500 MHz
Gurwin Techsat 1B 30 Sep 14:59:48 15:05:05 74° 71° (ENE) 15:10:25 435.225 FM
Saudisat 1A 30 Sep 15:03:23 15:07:12 29° 120° (ESE) 15:11:02 436.775 MHz
RS-15 30 Sep 15:09:38 15:14:15 14° 268° (W) 15:18:56 29.354 - 29.394 USB, Beacon 29.352 USB
MaSat-1 30 Sep 15:27:34 15:31:18 83° 237° (WSW) 15:34:29 437.345 MHz
TMSAT-1 30 Sep 15:28:53 15:34:11 88° 253° (WSW) 15:39:33 436.925 FM
Oscar 19 30 Sep 15:31:49 15:35:32 20° 272° (W) 15:39:16 437.125 CW, 437.150 USB
ITAMSAT 1 30 Sep 15:40:53 15:45:29 32° 265° (W) 15:50:09 435.822 SSB
Uribyol 2 30 Sep 15:42:03 15:46:34 30° 266° (W) 15:51:09 436.500 FM
JAS-1B 30 Sep 15:43:35 15:50:01 33° 265° (W) 15:55:39 435.800 - 435.900 CW/SSB
Uosat F 30 Sep 16:07:24 16:12:09 46° 65° (ENE) 16:16:56 435.120 FM
Sapphire 30 Sep 16:11:12 16:15:18 21° 14° (NNE) 16:19:24 437.095 MHz 1200 baud AX-25 AFSK
AO-27 30 Sep 16:21:07 16:24:20 16° 273° (W) 16:27:34 436.795 MHz FM
Oscar 10/S400 30 Sep 16:28:06 16:42:08 24° 145° (SE) 17:04:24 145.825 - 145.975 CW/USB, Beacon 145.810 USB
AO-Echo 30 Sep 16:30:06 16:31:10 11° 277° (W) 16:32:15 ?
PCSat 30 Sep 16:37:05 16:41:30 24° 21° (NNE) 16:45:55 145.825 MHz
Gurwin Techsat 1B 30 Sep 16:41:38 16:45:38 21° 271° (W) 16:49:40 435.225 FM
Saudisat 1A 30 Sep 16:42:13 16:46:34 57° 321° (NW) 16:50:57 436.775 MHz
AO-7 30 Sep 16:46:01 16:54:19 78° 251° (WSW) 17:02:40 29.400 - 29.500 MHz
JAS-2 30 Sep 17:07:26 17:12:04 33° 59° (ENE) 17:17:03 435.800 - 435.900 CW/SSB, 435.910 FM
TMSAT-1 30 Sep 17:11:35 17:14:54 17° 274° (W) 17:18:15 436.925 FM
Hamsat 30 Sep 17:20:13 17:23:52 27° 63° (ENE) 17:27:30 145.90 MHz
KITSAT 1 30 Sep 17:41:18 17:48:32 38° 112° (ESE) 17:55:48 435.175 FM
OPAL 30 Sep 17:46:00 17:50:13 25° 94° (E) 17:54:22 ?
Uosat F 30 Sep 17:46:39 17:51:07 32° 265° (W) 17:55:37 435.120 FM
Sapphire 30 Sep 17:54:51 18:00:05 44° 38° (NE) 18:05:17 437.095 MHz 1200 baud AX-25 AFSK
HO-68 30 Sep 18:01:31 18:03:39 12° 26° (NNE) 18:05:47 435.675 MHz FM
SO-67 30 Sep 18:20:13 18:22:11 15° 60° (ENE) 18:24:08 435.3500 MHz FM
PCSat 30 Sep 18:20:33 18:25:58 62° 45° (NE) 18:31:21 145.825 MHz
Saudisat 1A 30 Sep 18:23:28 18:26:59 23° 344° (NNW) 18:30:32 436.775 MHz
AO-7 30 Sep 18:42:33 18:48:31 21° 274° (W) 18:54:32 29.400 - 29.500 MHz
STRAND 1 30 Sep 18:48:39 18:49:54 11° 82° (E) 18:51:10 ?
JAS-2 30 Sep 18:52:02 18:57:04 48° 262° (W) 19:02:29 435.800 - 435.900 CW/SSB, 435.910 FM
Hamsat 30 Sep 18:55:31 18:59:40 44° 262° (W) 19:03:49 145.90 MHz
OPAL 30 Sep 19:24:25 19:29:30 61° 294° (WNW) 19:34:29 ?
KITSAT 1 30 Sep 19:35:23 19:43:29 74° 316° (NW) 19:51:37 435.175 FM
Sapphire 30 Sep 19:38:24 19:43:38 49° 240° (WSW) 19:48:51 437.095 MHz 1200 baud AX-25 AFSK
HO-68 30 Sep 19:43:11 19:49:14 31° 50° (NE) 19:55:18 435.675 MHz FM
SO-67 30 Sep 19:51:22 19:54:47 62° 259° (WSW) 19:58:14 435.3500 MHz FM
SO-50 30 Sep 19:53:44 19:57:12 22° 116° (ESE) 20:00:44 436.795 FM
PCSat 30 Sep 20:04:22 20:09:07 32° 246° (WSW) 20:13:51 145.825 MHz
Saudisat 1A 30 Sep 20:04:41 20:07:57 20° 8° (N) 20:11:14 436.775 MHz
UKube-1 30 Sep 20:07:47 20:09:16 12° 50° (NE) 20:10:44 145.840 MHz, 145.915 MHz
STRAND 1 30 Sep 20:25:03 20:30:11 62° 102° (ESE) 20:35:17 ?
ZACube-1 30 Sep 20:47:22 20:48:26 11° 48° (NE) 20:49:31 437.345 MHz
OPAL 30 Sep 21:04:40 21:07:28 15° 315° (NW) 21:10:14 ?
Oscar 11 30 Sep 21:11:57 21:15:39 28° 62° (ENE) 21:19:22 145.825 FM, Beacon 2401.500 USB
HO-68 30 Sep 21:29:11 21:36:21 81° 252° (WSW) 21:43:35 435.675 MHz FM
SO-50 30 Sep 21:32:44 21:37:17 77° 317° (NW) 21:42:00 436.795 FM
KITSAT 1 30 Sep 21:32:45 21:40:11 38° 342° (NNW) 21:47:37 435.175 FM
FUNcube-1 30 Sep 21:35:20 21:38:58 24° 59° (ENE) 21:42:38 145.950 - 145.970 MHz USB
UKube-1 30 Sep 21:40:21 21:44:38 61° 70° (ENE) 21:48:56 145.840 MHz, 145.915 MHz
Saudisat 1A 30 Sep 21:44:30 21:48:39 37° 31° (NNE) 21:52:47 436.775 MHz
UOSAT-12 30 Sep 22:02:45 22:06:55 33° 121° (ESE) 22:11:09 437.025 FM, 437.400 FM
STRAND 1 30 Sep 22:04:47 22:09:03 27° 302° (WNW) 22:13:18 ?
AO-40 30 Sep 22:16:39 00:45:35 21° 202° (SSW) 04:22:06 Beacon 2401.320
ZACube-1 30 Sep 22:19:24 22:23:50 52° 69° (ENE) 22:28:21 437.345 MHz
Oscar 11 30 Sep 22:47:30 22:51:41 44° 261° (W) 22:55:54 145.825 FM, Beacon 2401.500 USB
FUNcube-1 30 Sep 23:10:30 23:15:01 60° 259° (W) 23:19:37 145.950 - 145.970 MHz USB
SO-50 30 Sep 23:14:36 23:18:33 27° 340° (NNW) 23:22:36 436.795 FM
UKube-1 30 Sep 23:18:04 23:21:14 20° 269° (W) 23:24:25 145.840 MHz, 145.915 MHz
HO-68 30 Sep 23:20:10 23:25:12 20° 274° (W) 23:30:17 435.675 MHz FM
Saudisat 1A 30 Sep 23:24:06 23:28:25 54° 233° (SW) 23:32:43 436.775 MHz
KITSAT 1 30 Sep 23:30:31 23:37:49 35° 11° (NNE) 23:45:06 435.175 FM
UOSAT-12 30 Sep 23:42:17 23:46:54 56° 322° (NW) 23:51:36 437.025 FM, 437.400 FM
ZACube-1 30 Sep 23:56:44 00:00:31 25° 268° (W) 00:04:22 437.345 MHz
ISS 01 Oct 00:15:18 00:18:17 31° 154° (SSE) 00:21:17 145.800 FM
SO-50 01 Oct 00:56:56 01:00:31 21° 4° (N) 01:04:09 436.795 FM
RS-15 01 Oct 01:19:38 01:25:11 16° 94° (E) 01:30:42 29.354 - 29.394 USB, Beacon 29.352 USB
UOSAT-12 01 Oct 01:24:07 01:27:58 24° 345° (NNW) 01:31:52 437.025 FM, 437.400 FM
KITSAT 1 01 Oct 01:26:46 01:34:49 62° 39° (NE) 01:42:49 435.175 FM
ISS 01 Oct 01:51:24 01:54:42 65° 174° (S) 01:58:01 145.800 FM
Oscar 19 01 Oct 01:56:40 02:00:06 18° 87° (E) 02:03:31 437.125 CW, 437.150 USB
ITAMSAT 1 01 Oct 02:10:16 02:11:01 10° 81° (E) 02:11:47 435.822 SSB
Uribyol 2 01 Oct 02:10:29 02:12:02 11° 82° (E) 02:13:34 436.500 FM
Oscar 16 01 Oct 02:36:56 02:41:42 36° 96° (E) 02:46:26 437.025 USB, Beacon 2401.1428
SO-50 01 Oct 02:37:58 02:42:20 34° 28° (NNE) 02:46:45 436.795 FM
AO-27 01 Oct 02:46:11 02:50:09 21° 90° (E) 02:54:05 436.795 MHz FM
AO-Echo 01 Oct 02:47:32 02:51:38 25° 92° (E) 02:55:49 ?
UOSAT-12 01 Oct 03:05:51 03:09:34 22° 9° (N) 03:13:16 437.025 FM, 437.400 FM
Gurwin Techsat 1B 01 Oct 03:10:30 03:14:12 19° 87° (E) 03:17:53 435.225 FM
JAS-1B 01 Oct 03:19:38 03:25:07 47° 99° (E) 03:30:48 435.800 - 435.900 CW/SSB
KITSAT 1 01 Oct 03:22:28 03:30:09 49° 243° (WSW) 03:37:48 435.175 FM
RS-15 01 Oct 03:24:17 03:34:51 57° 119° (ESE) 03:45:23 29.354 - 29.394 USB, Beacon 29.352 USB
ISS 01 Oct 03:28:00 03:31:16 53° 194° (SSW) 03:34:31 145.800 FM
OPAL 01 Oct 03:29:51 03:33:34 20° 50° (NE) 03:37:17 ?
Oscar 19 01 Oct 03:34:57 03:40:09 85° 287° (WNW) 03:45:17 437.125 CW, 437.150 USB
TMSAT-1 01 Oct 03:38:52 03:43:08 24° 90° (E) 03:47:22 436.925 FM
ITAMSAT 1 01 Oct 03:46:28 03:51:40 59° 102° (ESE) 03:56:49 435.822 SSB
Uribyol 2 01 Oct 03:47:22 03:52:35 63° 102° (ESE) 03:57:46 436.500 FM
Oscar 16 01 Oct 04:16:18 04:21:10 42° 296° (WNW) 04:25:59 437.025 USB, Beacon 2401.1428
SO-50 01 Oct 04:18:31 04:23:17 72° 229° (SW) 04:28:08 436.795 FM
AO-27 01 Oct 04:24:59 04:30:13 73° 290° (WNW) 04:35:26 436.795 MHz FM
AO-Echo 01 Oct 04:25:52 04:30:45 59° 291° (WNW) 04:35:46 ?
AO-7 01 Oct 04:40:59 04:47:36 25° 89° (E) 04:54:10 29.400 - 29.500 MHz
UOSAT-12 01 Oct 04:46:18 04:50:50 42° 33° (NNE) 04:55:20 437.025 FM, 437.400 FM
Gurwin Techsat 1B 01 Oct 04:49:30 04:54:52 83° 288° (WNW) 05:00:11 435.225 FM
ISS 01 Oct 05:05:01 05:07:30 20° 213° (SSW) 05:09:59 145.800 FM
OPAL 01 Oct 05:06:35 05:11:49 86° 70° (ENE) 05:17:04 ?
JAS-1B 01 Oct 05:10:41 05:15:48 35° 301° (WNW) 05:21:01 435.800 - 435.900 CW/SSB
Oscar 19 01 Oct 05:15:20 05:18:49 19° 308° (NW) 05:22:16 437.125 CW, 437.150 USB
TMSAT-1 01 Oct 05:18:15 05:23:32 66° 290° (WNW) 05:28:47 436.925 FM
MaSat-1 01 Oct 05:19:31 05:21:07 12° 102° (ESE) 05:22:41 437.345 MHz
KITSAT 1 01 Oct 05:21:08 05:23:35 12° 265° (W) 05:26:03 435.175 FM
ITAMSAT 1 01 Oct 05:26:27 05:30:53 29° 302° (WNW) 05:35:18 435.822 SSB
Uribyol 2 01 Oct 05:27:23 05:31:44 27° 303° (WNW) 05:36:04 436.500 FM
RS-15 01 Oct 05:36:17 05:47:10 66° 327° (NNW) 05:58:11 29.354 - 29.394 USB, Beacon 29.352 USB
Uosat F 01 Oct 05:47:11 05:52:06 49° 100° (E) 05:56:59 435.120 FM
JAS-2 01 Oct 05:53:01 05:57:46 21° 87° (E) 06:02:52 435.800 - 435.900 CW/SSB, 435.910 FM
Oscar 16 01 Oct 05:58:34 05:59:17 10° 317° (NW) 06:00:00 437.025 USB, Beacon 2401.1428
SO-50 01 Oct 06:00:30 06:03:07 15° 249° (WSW) 06:05:45 436.795 FM
AO-27 01 Oct 06:05:43 06:08:56 17° 310° (NW) 06:12:09 436.795 MHz FM
AO-Echo 01 Oct 06:06:24 06:08:38 13° 311° (NW) 06:10:54 ?
STRAND 1 01 Oct 06:09:07 06:13:33 31° 60° (ENE) 06:18:01 ?
UOSAT-12 01 Oct 06:26:32 06:31:08 50° 234° (SW) 06:35:40 437.025 FM, 437.400 FM
Gurwin Techsat 1B 01 Oct 06:30:30 06:34:08 19° 308° (NW) 06:37:45 435.225 FM
AO-7 01 Oct 06:33:11 06:41:32 88° 111° (ESE) 06:49:52 29.400 - 29.500 MHz
Hamsat 01 Oct 06:35:19 06:38:38 22° 91° (E) 06:41:54 145.90 MHz
OPAL 01 Oct 06:47:51 06:51:22 18° 270° (W) 06:54:55 ?
MaSat-1 01 Oct 06:52:07 06:56:53 64° 120° (ESE) 07:01:18 437.345 MHz
TMSAT-1 01 Oct 06:59:32 07:02:34 16° 311° (NW) 07:05:35 436.925 FM
Uosat F 01 Oct 07:26:19 07:30:44 32° 300° (WNW) 07:35:08 435.120 FM
JAS-2 01 Oct 07:37:10 07:43:37 84° 106° (ESE) 07:50:54 435.800 - 435.900 CW/SSB, 435.910 FM
STRAND 1 01 Oct 07:47:36 07:52:34 51° 260° (W) 07:57:35 ?
RS-15 01 Oct 07:51:16 08:01:41 46° 359° (N) 08:12:20 29.354 - 29.394 USB, Beacon 29.352 USB
Hamsat 01 Oct 08:10:46 08:14:53 50° 291° (WNW) 08:18:56 145.90 MHz
AO-7 01 Oct 08:26:31 08:33:34 33° 315° (NW) 08:40:36 29.400 - 29.500 MHz
MaSat-1 01 Oct 08:29:35 08:33:40 29° 319° (NW) 08:37:28 437.345 MHz
SO-67 01 Oct 08:41:39 08:45:07 64° 102° (ESE) 08:48:32 435.3500 MHz FM
HO-68 01 Oct 08:51:47 08:55:29 14° 81° (E) 08:59:09 435.675 MHz FM
PCSat 01 Oct 09:11:40 09:14:11 13° 103° (ESE) 09:16:42 145.825 MHz
JAS-2 01 Oct 09:23:01 09:28:12 28° 305° (NW) 09:33:53 435.800 - 435.900 CW/SSB, 435.910 FM
RS-15 01 Oct 10:05:25 10:16:20 62° 31° (NNE) 10:27:35 29.354 - 29.394 USB, Beacon 29.352 USB
MaSat-1 01 Oct 10:10:12 10:11:27 11° 341° (NNW) 10:12:40 437.345 MHz
SO-67 01 Oct 10:15:48 10:17:43 14° 301° (WNW) 10:19:37 435.3500 MHz FM
AO-7 01 Oct 10:19:54 10:23:56 15° 340° (NNW) 10:27:57 29.400 - 29.500 MHz
Sapphire 01 Oct 10:26:04 10:31:08 42° 118° (ESE) 10:36:14 437.095 MHz 1200 baud AX-25 AFSK
Oscar 11 01 Oct 10:29:10 10:32:36 22° 91° (E) 10:36:00 145.825 FM, Beacon 2401.500 USB
HO-68 01 Oct 10:37:35 10:44:44 62° 103° (ESE) 10:51:50 435.675 MHz FM
PCSat 01 Oct 10:51:15 10:56:36 66° 124° (ESE) 11:02:00 145.825 MHz
FUNcube-1 01 Oct 10:54:10 10:57:31 20° 89° (E) 11:00:48 145.950 - 145.970 MHz USB
UKube-1 01 Oct 10:58:27 11:02:41 46° 100° (E) 11:06:54 145.840 MHz, 145.915 MHz
ZACube-1 01 Oct 11:38:47 11:43:15 46° 98° (E) 11:47:35 437.345 MHz
Oscar 19 01 Oct 11:44:22 11:45:55 11° 44° (NE) 11:47:27 437.125 CW, 437.150 USB
Oscar 11 01 Oct 12:04:51 12:09:05 52° 291° (WNW) 12:13:17 145.825 FM, Beacon 2401.500 USB
Sapphire 01 Oct 12:09:17 12:14:33 50° 319° (NW) 12:19:51 437.095 MHz 1200 baud AX-25 AFSK
AO-7 01 Oct 12:10:30 12:13:22 12° 8° (N) 12:16:14 29.400 - 29.500 MHz
RS-15 01 Oct 12:18:09 12:28:57 63° 239° (WSW) 12:40:10 29.354 - 29.394 USB, Beacon 29.352 USB
Oscar 16 01 Oct 12:22:43 12:26:28 21° 54° (NE) 12:30:12 437.025 USB, Beacon 2401.1428
JAS-1B 01 Oct 12:23:24 12:28:02 20° 50° (NE) 12:32:17 435.800 - 435.900 CW/SSB
HO-68 01 Oct 12:25:40 12:32:12 39° 305° (NW) 12:38:43 435.675 MHz FM
FUNcube-1 01 Oct 12:29:48 12:34:22 65° 289° (WNW) 12:38:49 145.950 - 145.970 MHz USB
AO-Echo 01 Oct 12:31:42 12:33:28 12° 48° (NE) 12:35:15 ?
AO-27 01 Oct 12:34:16 12:36:45 14° 47° (NE) 12:39:15 436.795 MHz FM
UKube-1 01 Oct 12:35:02 12:38:42 27° 299° (WNW) 12:42:23 145.840 MHz, 145.915 MHz
PCSat 01 Oct 12:35:23 12:40:24 37° 326° (NW) 12:45:27 145.825 MHz
Gurwin Techsat 1B 01 Oct 13:01:28 13:03:38 13° 45° (NE) 13:05:48 435.225 FM
ZACube-1 01 Oct 13:15:32 13:19:28 29° 298° (WNW) 13:23:20 437.345 MHz
